Year,Month,Day,Hour,Minute,Value (Times are PST for temperature in C)
2015,08,05,08,20,15.50
2015,08,05,08,21,15.60
2015,08,05,08,22,15.60
2015,08,05,08,23,15.60
2015,08,05,08,24,15.60
2015,08,05,08,25,15.50
2015,08,05,08,26,15.50
2015,08,05,08,27,15.50
2015,08,05,08,28,15.50
2015,08,05,08,29,15.50
2015,08,05,08,30,15.50
2015,08,05,08,31,15.50
2015,08,05,08,32,15.50
2015,08,05,08,33,15.50
2015,08,05,08,34,15.50
2015,08,05,08,35,15.50
2015,08,05,08,36,15.40
2015,08,05,08,37,15.40
2015,08,05,08,38,15.40
2015,08,05,08,39,15.40
2015,08,05,08,40,15.40
2015,08,05,08,41,15.40
2015,08,05,08,42,15.40
2015,08,05,08,43,15.40
2015,08,05,08,44,15.40
2015,08,05,08,45,15.40
2015,08,05,08,46,15.40
2015,08,05,08,47,15.40
2015,08,05,08,48,15.50
2015,08,05,08,49,15.50
2015,08,05,08,50,15.50
2015,08,05,08,51,15.50
2015,08,05,08,52,15.50
2015,08,05,08,53,15.50
2015,08,05,08,54,15.50
2015,08,05,08,55,15.50
2015,08,05,08,56,15.40
2015,08,05,08,57,15.40
2015,08,05,08,58,15.40
2015,08,05,08,59,15.40
2015,08,05,09,00,15.40
2015,08,05,09,01,15.40
2015,08,05,09,02,15.40
2015,08,05,09,03,15.40
2015,08,05,09,04,15.40
2015,08,05,09,05,15.40
2015,08,05,09,06,15.40
2015,08,05,09,07,15.40
2015,08,05,09,08,15.40
2015,08,05,09,09,15.40
2015,08,05,09,10,15.40
2015,08,05,09,11,15.40
2015,08,05,09,12,15.40
2015,08,05,09,13,15.40
2015,08,05,09,14,15.40
2015,08,05,09,15,15.40
2015,08,05,09,16,15.40
2015,08,05,09,17,15.40
2015,08,05,09,18,15.50
2015,08,05,09,19,15.50
2015,08,05,09,20,15.50
2015,08,05,09,21,15.50
2015,08,05,09,22,15.50
2015,08,05,09,23,15.50
2015,08,05,09,24,15.60
2015,08,05,09,25,15.60
2015,08,05,09,26,15.60
2015,08,05,09,27,15.60
2015,08,05,09,28,15.60
2015,08,05,09,29,15.60
2015,08,05,09,30,15.60
2015,08,05,09,31,15.60
2015,08,05,09,32,15.50
2015,08,05,09,33,15.50
2015,08,05,09,34,15.50
2015,08,05,09,35,15.50
2015,08,05,09,36,15.50
2015,08,05,09,37,15.50
2015,08,05,09,38,15.50
2015,08,05,09,39,15.50
2015,08,05,09,40,15.50
2015,08,05,09,41,15.50
2015,08,05,09,42,15.50
2015,08,05,09,43,15.50
2015,08,05,09,44,15.60
2015,08,05,09,45,15.60
2015,08,05,09,46,15.60
2015,08,05,09,47,15.60
2015,08,05,09,48,15.60
2015,08,05,09,49,15.60
2015,08,05,09,50,15.60
2015,08,05,09,51,15.60
2015,08,05,09,52,15.60
2015,08,05,09,53,15.60
2015,08,05,09,54,15.70
2015,08,05,09,55,15.70
2015,08,05,09,56,15.70
2015,08,05,09,57,15.70
2015,08,05,09,58,15.70
2015,08,05,09,59,15.80
2015,08,05,10,00,15.80
2015,08,05,10,01,15.80
2015,08,05,10,02,15.80
2015,08,05,10,03,15.80
2015,08,05,10,04,15.80
2015,08,05,10,05,15.80
2015,08,05,10,06,15.80
2015,08,05,10,07,15.80
2015,08,05,10,08,15.80
2015,08,05,10,09,15.90
2015,08,05,10,10,15.90
2015,08,05,10,11,16.00
2015,08,05,10,12,16.10
2015,08,05,10,13,16.10
2015,08,05,10,14,16.10
2015,08,05,10,15,16.20
2015,08,05,10,16,16.30
2015,08,05,10,17,16.30
2015,08,05,10,18,16.40
2015,08,05,10,19,16.40
2015,08,05,10,20,16.40
2015,08,05,10,21,16.40
2015,08,05,10,22,16.40
2015,08,05,10,23,16.50
2015,08,05,10,24,16.60
2015,08,05,10,25,16.60
2015,08,05,10,26,16.70
2015,08,05,10,27,16.70
2015,08,05,10,28,16.70
2015,08,05,10,29,16.70
2015,08,05,10,30,16.70
2015,08,05,10,31,16.70
2015,08,05,10,32,16.60
2015,08,05,10,33,16.60
2015,08,05,10,34,16.60
2015,08,05,10,35,16.60
2015,08,05,10,36,16.50
2015,08,05,10,37,16.40
2015,08,05,10,38,16.40
2015,08,05,10,39,16.40
2015,08,05,10,40,16.40
2015,08,05,10,41,16.40
2015,08,05,10,42,16.40
2015,08,05,10,43,16.40
2015,08,05,10,44,16.50
2015,08,05,10,45,16.60
2015,08,05,10,46,16.60
2015,08,05,10,47,16.70
2015,08,05,10,48,16.70
2015,08,05,10,49,16.70
2015,08,05,10,50,16.70
2015,08,05,10,51,16.70
2015,08,05,10,52,16.70
2015,08,05,10,53,16.70
2015,08,05,10,54,16.70
2015,08,05,10,55,16.70
2015,08,05,10,56,16.70
2015,08,05,10,57,16.70
2015,08,05,10,58,16.70
2015,08,05,10,59,16.70
2015,08,05,11,00,16.70
2015,08,05,11,01,16.70
2015,08,05,11,02,16.60
2015,08,05,11,03,16.60
2015,08,05,11,04,16.60
2015,08,05,11,05,16.60
2015,08,05,11,06,16.60
2015,08,05,11,07,16.60
2015,08,05,11,08,16.60
2015,08,05,11,09,16.40
2015,08,05,11,10,16.40
2015,08,05,11,11,16.40
2015,08,05,11,12,16.40
2015,08,05,11,13,16.40
2015,08,05,11,14,16.40
2015,08,05,11,15,16.40
2015,08,05,11,16,16.40
2015,08,05,11,17,16.40
2015,08,05,11,18,16.40
2015,08,05,11,19,16.40
2015,08,05,11,20,16.40
2015,08,05,11,21,16.40
2015,08,05,11,22,16.40
2015,08,05,11,23,16.40
2015,08,05,11,24,16.40
2015,08,05,11,25,16.40
2015,08,05,11,26,16.40
2015,08,05,11,27,16.40
2015,08,05,11,28,16.40
2015,08,05,11,29,16.40
2015,08,05,11,30,16.40
2015,08,05,11,31,16.40
2015,08,05,11,32,16.40
2015,08,05,11,33,16.40
2015,08,05,11,34,16.40
2015,08,05,11,35,16.40
2015,08,05,11,36,16.40
2015,08,05,11,37,16.40
2015,08,05,11,38,16.40
2015,08,05,11,39,16.40
2015,08,05,11,40,16.40
2015,08,05,11,41,16.40
2015,08,05,11,42,16.40
2015,08,05,11,43,16.40
2015,08,05,11,44,16.50
2015,08,05,11,45,16.60
2015,08,05,11,46,16.60
2015,08,05,11,47,16.60
2015,08,05,11,48,16.60
2015,08,05,11,49,16.60
2015,08,05,11,50,16.60
2015,08,05,11,51,16.70
2015,08,05,11,52,16.70
2015,08,05,11,53,16.70
2015,08,05,11,54,16.70
2015,08,05,11,55,16.70
2015,08,05,11,56,16.70
2015,08,05,11,57,16.80
2015,08,05,11,58,16.80
2015,08,05,11,59,16.80
2015,08,05,12,00,16.80
2015,08,05,12,01,16.80
2015,08,05,12,02,16.80
2015,08,05,12,03,16.80
2015,08,05,12,04,16.80
2015,08,05,12,05,16.70
2015,08,05,12,06,16.80
2015,08,05,12,07,16.80
2015,08,05,12,08,16.80
2015,08,05,12,09,16.80
2015,08,05,12,10,16.80
2015,08,05,12,11,16.80
2015,08,05,12,12,16.80
2015,08,05,12,13,16.80
2015,08,05,12,14,16.70
2015,08,05,12,15,16.70
2015,08,05,12,16,16.70
2015,08,05,12,17,16.70
2015,08,05,12,18,16.70
2015,08,05,12,19,16.60
2015,08,05,12,20,16.60
2015,08,05,12,21,16.60
2015,08,05,12,22,16.60
2015,08,05,12,23,16.60
2015,08,05,12,24,16.60
2015,08,05,12,25,16.60
2015,08,05,12,26,16.60
2015,08,05,12,27,16.60
2015,08,05,12,28,16.60
2015,08,05,12,29,16.60
2015,08,05,12,30,16.60
2015,08,05,12,31,16.60
2015,08,05,12,32,16.60
2015,08,05,12,33,16.60
2015,08,05,12,34,16.70
2015,08,05,12,35,16.70
2015,08,05,12,36,16.70
2015,08,05,12,37,16.70
2015,08,05,12,38,16.70
2015,08,05,12,39,16.70
2015,08,05,12,40,16.70
2015,08,05,12,41,16.70
2015,08,05,12,42,16.70
2015,08,05,12,43,16.70
2015,08,05,12,44,16.70
2015,08,05,12,45,16.70
2015,08,05,12,46,16.70
2015,08,05,12,47,16.70
2015,08,05,12,48,16.70
2015,08,05,12,49,16.70
2015,08,05,12,50,16.70
2015,08,05,12,51,16.70
2015,08,05,12,52,16.70
2015,08,05,12,53,16.70
2015,08,05,12,54,16.70
2015,08,05,12,55,16.70
2015,08,05,12,56,16.70
2015,08,05,12,57,16.70
2015,08,05,12,58,16.70
2015,08,05,12,59,16.70
2015,08,05,13,00,16.70
2015,08,05,13,01,16.70
2015,08,05,13,02,16.70
2015,08,05,13,03,16.70
2015,08,05,13,04,16.70
2015,08,05,13,05,16.70
2015,08,05,13,06,16.70
2015,08,05,13,07,16.70
2015,08,05,13,08,16.70
2015,08,05,13,09,16.70
2015,08,05,13,10,16.70
2015,08,05,13,11,16.70
2015,08,05,13,12,16.70
2015,08,05,13,13,16.70
2015,08,05,13,14,16.70
2015,08,05,13,15,16.70
2015,08,05,13,16,16.70
2015,08,05,13,17,16.70
2015,08,05,13,18,16.80
2015,08,05,13,19,16.80
2015,08,05,13,20,16.90
2015,08,05,13,21,16.90
2015,08,05,13,22,16.90
2015,08,05,13,23,16.90
2015,08,05,13,24,16.90
2015,08,05,13,25,16.90
2015,08,05,13,26,16.90
2015,08,05,13,27,16.90
2015,08,05,13,28,17.00
2015,08,05,13,29,17.00
2015,08,05,13,30,17.00
2015,08,05,13,31,17.00
2015,08,05,13,32,16.90
2015,08,05,13,33,16.90
2015,08,05,13,34,16.90
2015,08,05,13,35,16.90
2015,08,05,13,36,16.90
2015,08,05,13,37,16.90
2015,08,05,13,38,16.90
2015,08,05,13,39,16.90
2015,08,05,13,40,17.00
2015,08,05,13,41,17.00
2015,08,05,13,42,16.90
2015,08,05,13,43,16.90
2015,08,05,13,44,16.90
2015,08,05,13,45,17.00
2015,08,05,13,46,17.00
2015,08,05,13,47,16.90
2015,08,05,13,48,16.90
2015,08,05,13,49,16.90
2015,08,05,13,50,16.90
2015,08,05,13,51,17.00
2015,08,05,13,52,16.90
2015,08,05,13,53,16.90
2015,08,05,13,54,16.90
2015,08,05,13,55,16.90
2015,08,05,13,56,16.90
2015,08,05,13,57,16.90
2015,08,05,13,58,16.90
2015,08,05,13,59,16.90
2015,08,05,14,00,16.90
2015,08,05,14,01,16.90
2015,08,05,14,02,16.90
2015,08,05,14,03,16.90
2015,08,05,14,04,16.90
2015,08,05,14,05,16.90
2015,08,05,14,06,17.00
2015,08,05,14,07,17.00
2015,08,05,14,08,17.00
2015,08,05,14,09,16.90
2015,08,05,14,10,16.90
2015,08,05,14,11,16.90
2015,08,05,14,12,16.90
2015,08,05,14,13,16.90
2015,08,05,14,14,16.90
2015,08,05,14,15,16.90
2015,08,05,14,16,16.90
2015,08,05,14,17,16.90
2015,08,05,14,18,16.90
2015,08,05,14,19,16.90
2015,08,05,14,20,16.90
2015,08,05,14,21,16.90
2015,08,05,14,22,16.90
2015,08,05,14,23,16.90
2015,08,05,14,24,16.90
2015,08,05,14,25,16.90
2015,08,05,14,26,16.90
2015,08,05,14,27,16.90
2015,08,05,14,28,16.90
2015,08,05,14,29,17.00
2015,08,05,14,30,17.00
2015,08,05,14,31,17.00
2015,08,05,14,32,17.00
2015,08,05,14,33,17.00
2015,08,05,14,34,17.00
2015,08,05,14,35,17.10
2015,08,05,14,36,17.10
2015,08,05,14,37,17.10
2015,08,05,14,38,17.10
2015,08,05,14,39,17.10
2015,08,05,14,40,17.10
2015,08,05,14,41,17.20
2015,08,05,14,42,17.20
2015,08,05,14,43,17.30
2015,08,05,14,44,17.30
2015,08,05,14,45,17.30
2015,08,05,14,46,17.30
2015,08,05,14,47,17.30
2015,08,05,14,48,17.30
2015,08,05,14,49,17.30
2015,08,05,14,50,17.30
2015,08,05,14,51,17.30
2015,08,05,14,52,17.40
2015,08,05,14,53,17.40
2015,08,05,14,54,17.40
2015,08,05,14,55,17.50
2015,08,05,14,56,17.50
2015,08,05,14,57,17.40
2015,08,05,14,58,17.40
2015,08,05,14,59,17.40
2015,08,05,15,00,17.50
2015,08,05,15,01,17.40
2015,08,05,15,02,17.50
2015,08,05,15,03,17.50
2015,08,05,15,04,17.50
2015,08,05,15,05,17.50
2015,08,05,15,06,17.50
2015,08,05,15,07,17.50
2015,08,05,15,08,17.50
2015,08,05,15,09,17.50
2015,08,05,15,10,17.40
2015,08,05,15,11,17.40
2015,08,05,15,12,17.40
2015,08,05,15,13,17.40
2015,08,05,15,14,17.40
2015,08,05,15,15,17.40
2015,08,05,15,16,17.40
2015,08,05,15,17,17.40
2015,08,05,15,18,17.40
2015,08,05,15,19,17.50
2015,08,05,15,20,17.50
2015,08,05,15,21,17.50
2015,08,05,15,22,17.50
2015,08,05,15,23,17.60
2015,08,05,15,24,17.60
2015,08,05,15,25,17.60
2015,08,05,15,26,17.70
2015,08,05,15,27,17.70
2015,08,05,15,28,17.80
2015,08,05,15,29,17.80
2015,08,05,15,30,17.80
2015,08,05,15,31,17.80
2015,08,05,15,32,17.90
2015,08,05,15,33,17.90
2015,08,05,15,34,17.90
2015,08,05,15,35,17.90
2015,08,05,15,36,17.90
2015,08,05,15,37,17.90
2015,08,05,15,38,17.90
2015,08,05,15,39,17.90
2015,08,05,15,40,17.90
2015,08,05,15,41,17.90
2015,08,05,15,42,17.90
2015,08,05,15,43,17.90
2015,08,05,15,44,17.90
2015,08,05,15,45,17.90
2015,08,05,15,46,17.80
2015,08,05,15,47,17.80
2015,08,05,15,48,17.70
2015,08,05,15,49,17.70
2015,08,05,15,50,17.60
2015,08,05,15,51,17.60
2015,08,05,15,52,17.50
2015,08,05,15,53,17.50
2015,08,05,15,54,17.40
2015,08,05,15,55,17.40
2015,08,05,15,56,17.30
2015,08,05,15,57,17.30
2015,08,05,15,58,17.30
2015,08,05,15,59,17.40
2015,08,05,16,00,17.40
2015,08,05,16,01,17.40
2015,08,05,16,02,17.40
2015,08,05,16,03,17.50
2015,08,05,16,04,17.50
2015,08,05,16,05,17.50
2015,08,05,16,06,17.50
2015,08,05,16,07,17.50
2015,08,05,16,08,17.50
2015,08,05,16,09,17.50
2015,08,05,16,10,17.50
2015,08,05,16,11,17.50
2015,08,05,16,12,17.50
2015,08,05,16,13,17.50
2015,08,05,16,14,17.50
2015,08,05,16,15,17.40
2015,08,05,16,16,17.40
2015,08,05,16,17,17.40
2015,08,05,16,18,17.50
2015,08,05,16,19,17.50
2015,08,05,16,20,17.50
2015,08,05,16,21,17.40
2015,08,05,16,22,17.40
2015,08,05,16,23,17.40
2015,08,05,16,24,17.30
2015,08,05,16,25,17.30
2015,08,05,16,26,17.30
2015,08,05,16,27,17.30
2015,08,05,16,28,17.30
2015,08,05,16,29,17.30
2015,08,05,16,30,17.30
2015,08,05,16,31,17.30
2015,08,05,16,32,17.30
2015,08,05,16,33,17.30
2015,08,05,16,34,17.30
2015,08,05,16,35,17.30
2015,08,05,16,36,17.30
2015,08,05,16,37,17.30
2015,08,05,16,38,17.30
2015,08,05,16,39,17.30
2015,08,05,16,40,17.40
2015,08,05,16,41,17.30
2015,08,05,16,42,17.40
2015,08,05,16,43,17.40
2015,08,05,16,44,17.40
2015,08,05,16,45,17.30
2015,08,05,16,46,17.40
2015,08,05,16,47,17.40
2015,08,05,16,48,17.40
2015,08,05,16,49,17.40
2015,08,05,16,50,17.40
2015,08,05,16,51,17.30
2015,08,05,16,52,17.30
2015,08,05,16,53,17.30
2015,08,05,16,54,17.30
2015,08,05,16,55,17.30
2015,08,05,16,56,17.30
2015,08,05,16,57,17.30
2015,08,05,16,58,17.30
2015,08,05,16,59,17.30
2015,08,05,17,00,17.30
2015,08,05,17,01,17.30
2015,08,05,17,02,17.30
2015,08,05,17,03,17.30
2015,08,05,17,04,17.30
2015,08,05,17,05,17.30
2015,08,05,17,06,17.30
2015,08,05,17,07,17.30
2015,08,05,17,08,17.30
2015,08,05,17,09,17.30
2015,08,05,17,10,17.30
2015,08,05,17,11,17.30
2015,08,05,17,12,17.30
2015,08,05,17,13,17.30
2015,08,05,17,14,17.30
2015,08,05,17,15,17.30
2015,08,05,17,16,17.30
2015,08,05,17,17,17.30
2015,08,05,17,18,17.30
2015,08,05,17,19,17.30
2015,08,05,17,20,17.30
2015,08,05,17,21,17.30
2015,08,05,17,22,17.30
2015,08,05,17,23,17.30
2015,08,05,17,24,17.30
2015,08,05,17,25,17.30
2015,08,05,17,26,17.30
2015,08,05,17,27,17.30
2015,08,05,17,28,17.30
2015,08,05,17,29,17.30
2015,08,05,17,30,17.30
2015,08,05,17,31,17.30
2015,08,05,17,32,17.30
2015,08,05,17,33,17.30
2015,08,05,17,34,17.30
2015,08,05,17,35,17.30
2015,08,05,17,36,17.30
2015,08,05,17,37,17.30
2015,08,05,17,38,17.30
2015,08,05,17,39,17.30
2015,08,05,17,40,17.30
2015,08,05,17,41,17.30
2015,08,05,17,42,17.30
2015,08,05,17,43,17.30
2015,08,05,17,44,17.30
2015,08,05,17,45,17.20
2015,08,05,17,46,17.20
2015,08,05,17,47,17.20
2015,08,05,17,48,17.20
2015,08,05,17,49,17.20
2015,08,05,17,50,17.20
2015,08,05,17,51,17.20
2015,08,05,17,52,17.20
2015,08,05,17,53,17.20
2015,08,05,17,54,17.20
2015,08,05,17,55,17.20
2015,08,05,17,56,17.20
2015,08,05,17,57,17.20
2015,08,05,17,58,17.20
2015,08,05,17,59,17.20
2015,08,05,18,00,17.20
2015,08,05,18,01,17.20
2015,08,05,18,02,17.20
2015,08,05,18,03,17.20
2015,08,05,18,04,17.20
2015,08,05,18,05,17.20
2015,08,05,18,06,17.20
2015,08,05,18,07,17.20
2015,08,05,18,08,17.20
2015,08,05,18,09,17.20
2015,08,05,18,10,17.10
2015,08,05,18,11,17.10
2015,08,05,18,12,17.10
2015,08,05,18,13,17.10
2015,08,05,18,14,17.10
2015,08,05,18,15,17.00
2015,08,05,18,16,17.00
2015,08,05,18,17,17.00
2015,08,05,18,18,17.00
2015,08,05,18,19,17.00
2015,08,05,18,20,17.00
2015,08,05,18,21,17.00
2015,08,05,18,22,17.00
2015,08,05,18,23,17.00
2015,08,05,18,24,17.00
2015,08,05,18,25,17.00
2015,08,05,18,26,17.00
2015,08,05,18,27,17.10
2015,08,05,18,28,17.10
2015,08,05,18,29,17.10
2015,08,05,18,30,17.10
2015,08,05,18,31,17.10
2015,08,05,18,32,17.10
2015,08,05,18,33,17.00
2015,08,05,18,34,17.00
2015,08,05,18,35,17.00
2015,08,05,18,36,17.00
2015,08,05,18,37,17.00
2015,08,05,18,38,17.00
2015,08,05,18,39,17.00
2015,08,05,18,40,17.00
2015,08,05,18,41,16.90
2015,08,05,18,42,16.90
2015,08,05,18,43,16.90
2015,08,05,18,44,16.80
2015,08,05,18,45,16.80
2015,08,05,18,46,16.80
2015,08,05,18,47,16.70
2015,08,05,18,48,16.70
2015,08,05,18,49,16.70
2015,08,05,18,50,16.70
2015,08,05,18,51,16.70
2015,08,05,18,52,16.70
2015,08,05,18,53,16.70
2015,08,05,18,54,16.70
2015,08,05,18,55,16.70
2015,08,05,18,56,16.70
2015,08,05,18,57,16.70
2015,08,05,18,58,16.70
2015,08,05,18,59,16.70
2015,08,05,19,00,16.70
2015,08,05,19,01,16.70
2015,08,05,19,02,16.70
2015,08,05,19,03,16.70
2015,08,05,19,04,16.70
2015,08,05,19,05,16.70
2015,08,05,19,06,16.70
2015,08,05,19,07,16.60
2015,08,05,19,08,16.60
2015,08,05,19,09,16.60
2015,08,05,19,10,16.60
2015,08,05,19,11,16.60
2015,08,05,19,12,16.50
2015,08,05,19,13,16.40
2015,08,05,19,14,16.40
2015,08,05,19,15,16.40
2015,08,05,19,16,16.40
2015,08,05,19,17,16.40
2015,08,05,19,18,16.40
2015,08,05,19,19,16.40
2015,08,05,19,20,16.40
2015,08,05,19,21,16.40
2015,08,05,19,22,16.40
2015,08,05,19,23,16.40
2015,08,05,19,24,16.40
2015,08,05,19,25,16.40
2015,08,05,19,26,16.40
2015,08,05,19,27,16.40
2015,08,05,19,28,16.40
2015,08,05,19,29,16.40
2015,08,05,19,30,16.40
2015,08,05,19,31,16.40
2015,08,05,19,32,16.40
2015,08,05,19,33,16.40
2015,08,05,19,34,16.50
2015,08,05,19,35,16.60
2015,08,05,19,36,16.60
2015,08,05,19,37,16.60
2015,08,05,19,38,16.60
2015,08,05,19,39,16.70
2015,08,05,19,40,16.70
2015,08,05,19,41,16.70
2015,08,05,19,42,16.70
2015,08,05,19,43,16.70
2015,08,05,19,44,16.60
2015,08,05,19,45,16.60
2015,08,05,19,46,16.60
2015,08,05,19,47,16.60
2015,08,05,19,48,16.50
2015,08,05,19,49,16.40
2015,08,05,19,50,16.40
2015,08,05,19,51,16.40
2015,08,05,19,52,16.40
2015,08,05,19,53,16.40
2015,08,05,19,54,16.40
2015,08,05,19,55,16.40
2015,08,05,19,56,16.30
2015,08,05,19,57,16.30
2015,08,05,19,58,16.20
2015,08,05,19,59,16.20
2015,08,05,20,00,16.20
2015,08,05,20,01,16.10
2015,08,05,20,02,16.10
2015,08,05,20,03,16.10
2015,08,05,20,04,16.00
2015,08,05,20,05,15.90
2015,08,05,20,06,15.90
2015,08,05,20,07,15.90
2015,08,05,20,08,15.80
2015,08,05,20,09,15.80
2015,08,05,20,10,15.80
2015,08,05,20,11,15.80
2015,08,05,20,12,15.80
2015,08,05,20,13,15.80
2015,08,05,20,14,15.80
2015,08,05,20,15,15.80
2015,08,05,20,16,15.80
2015,08,05,20,17,15.70
2015,08,05,20,18,15.70
2015,08,05,20,19,15.70
2015,08,05,20,20,15.70
2015,08,05,20,21,15.70
2015,08,05,20,22,15.60
2015,08,05,20,23,15.60
2015,08,05,20,24,15.50
2015,08,05,20,25,15.50
2015,08,05,20,26,15.50
2015,08,05,20,27,15.50
2015,08,05,20,28,15.50
2015,08,05,20,29,15.50
2015,08,05,20,30,15.50
2015,08,05,20,31,15.50
2015,08,05,20,32,15.50
2015,08,05,20,33,15.50
